Mount Sterling, KY

6:04 AM EDT on September 26, 2016 (GMT -0400)
Mount Sterling-Montgomery County

Weather History for KIOB - October, 2012

Change the Weather History Date:

Monday, October 29, 2012

  Actual Average Record
Temperature  
Mean Temperature 38 °F -  
Max Temperature 42 °F 64 °F 62 °F (2014)
Min Temperature 35 °F 40 °F 41 °F (2013)
Degree Days  
Heating Degree Days 26    
Moisture  
Dew Point 33 °F    
Average Humidity 78    
Maximum Humidity 93    
Minimum Humidity 57    
Precipitation  
Precipitation 0.00 in - - ()
Sea Level Pressure  
Sea Level Pressure 29.94 in    
Wind  
Wind Speed 10 mph ()    
Max Wind Speed 21 mph    
Max Gust Speed 32 mph    
Visibility 10.0 miles    
Events Rain    
Averages and records for this station are not official NWS values.
T = Trace of Precipitation, MM = Missing Value Source: Averaged Metar Reports

Daily Weather History Graph

Daily Weather History Graph

Search for Another Location

Airport or City:

Trip Planner

Search our weather history database for the weather conditions in past years. The results will help you decide how hot, cold, wet, or windy it might be!

Date:

Astronomy

Oct. 29, 2012 Rise Set
Actual Time 7:59 AM EDT 6:39 PM EDT
Civil Twilight 7:31 AM EDT 7:06 PM EDT
Nautical Twilight 7:00 AM EDT 7:37 PM EDT
Astronomical Twilight 6:30 AM EDT 8:08 PM EDT
Moon 6:31 PM EDT (10/29) 7:48 AM EDT (10/29)
Length of Visible Light 11h 34m
Length of Day
10h 40m
Full, 100% of the Moon is Illuminated
Oct 29
Full
Oct 29
Full
Nov 6
Last Quarter
Nov 13
New
Nov 20
First Quarter

Hourly Weather History & Observations

Time (EDT) Temp. Windchill Dew Point Humidity Pressure Visibility Wind Dir Wind Speed Gust Speed Precip Events Conditions
12:15 AM 42.8 °F 38.0 °F 35.6 °F 76% 30.01 in 10.0 mi North 8.1 mph - N/A   Overcast
12:35 AM 42.8 °F 36.6 °F 35.6 °F 76% 30.01 in 10.0 mi North 11.5 mph - N/A   Overcast
12:55 AM 42.8 °F 37.5 °F 33.8 °F 70% 30.01 in 10.0 mi North 9.2 mph 17.3 mph N/A   Overcast
1:15 AM 42.8 °F 38.6 °F 33.8 °F 70% 30.01 in 10.0 mi North 6.9 mph - N/A   Overcast
1:35 AM 41.0 °F 35.2 °F 33.8 °F 76% 30.01 in 10.0 mi North 9.2 mph - N/A   Overcast
1:55 AM 42.8 °F 38.0 °F 32.0 °F 66% 30.00 in 10.0 mi North 8.1 mph 18.4 mph N/A   Overcast
2:15 AM 41.0 °F 34.3 °F 32.0 °F 70% 30.00 in 10.0 mi NNE 11.5 mph 18.4 mph N/A   Overcast
2:35 AM 41.0 °F 34.3 °F 32.0 °F 70% 30.00 in 10.0 mi NNE 11.5 mph 17.3 mph N/A   Overcast
2:55 AM 41.0 °F 33.9 °F 32.0 °F 70% 30.00 in 10.0 mi NNE 12.7 mph 17.3 mph N/A   Overcast
3:15 AM 41.0 °F 36.4 °F 32.0 °F 70% 30.00 in 10.0 mi NNE 6.9 mph - N/A   Overcast
3:35 AM 41.0 °F 35.2 °F 32.0 °F 70% 30.00 in 10.0 mi North 9.2 mph - N/A   Overcast
3:55 AM 41.0 °F 34.3 °F 32.0 °F 70% 29.99 in 10.0 mi North 11.5 mph 16.1 mph N/A   Overcast
4:15 AM 41.0 °F 35.8 °F 32.0 °F 70% 29.99 in 10.0 mi NNE 8.1 mph - N/A   Overcast
4:35 AM 41.0 °F 36.4 °F 32.0 °F 70% 29.99 in 10.0 mi North 6.9 mph - N/A   Overcast
4:55 AM 41.0 °F 35.2 °F 32.0 °F 70% 29.99 in 10.0 mi North 9.2 mph 16.1 mph N/A   Overcast
5:15 AM 39.2 °F 33.6 °F 32.0 °F 75% 29.98 in 10.0 mi North 8.1 mph - N/A   Overcast
5:35 AM 39.2 °F 33.6 °F 33.8 °F 81% 29.99 in 10.0 mi North 8.1 mph - N/A   Overcast
5:55 AM 39.2 °F 33.0 °F 33.8 °F 81% 29.99 in 10.0 mi North 9.2 mph - N/A   Overcast
6:55 AM 37.4 °F 32.1 °F 33.8 °F 87% 29.99 in 10.0 mi North 6.9 mph - N/A   Overcast
7:15 AM 37.4 °F 31.4 °F 33.8 °F 87% 29.99 in 10.0 mi North 8.1 mph - N/A   Overcast
7:35 AM 37.4 °F 33.8 °F 33.8 °F 87% 29.98 in 10.0 mi North 4.6 mph - N/A   Overcast
7:55 AM 37.4 °F 30.8 °F 32.0 °F 81% 29.99 in 10.0 mi NNW 9.2 mph - N/A   Overcast
8:15 AM 35.6 °F 29.9 °F 32.0 °F 87% 29.99 in 10.0 mi NNW 6.9 mph - N/A   Overcast
8:35 AM 35.6 °F 28.6 °F 32.0 °F 87% 29.98 in 10.0 mi NNW 9.2 mph 16.1 mph N/A   Overcast
8:55 AM 37.4 °F 31.4 °F 32.0 °F 81% 29.98 in 10.0 mi NNW 8.1 mph - N/A   Overcast
9:15 AM 37.4 °F 30.8 °F 32.0 °F 81% 29.98 in 10.0 mi North 9.2 mph 16.1 mph N/A   Overcast
9:35 AM 37.4 °F 30.8 °F 32.0 °F 81% 29.98 in 10.0 mi North 9.2 mph - N/A   Overcast
9:55 AM 37.4 °F 29.8 °F 32.0 °F 81% 29.98 in 10.0 mi North 11.5 mph 16.1 mph N/A   Overcast
10:15 AM 37.4 °F 30.8 °F 32.0 °F 81% 29.98 in 10.0 mi North 9.2 mph - N/A   Overcast
10:35 AM 37.4 °F 28.5 °F 32.0 °F 81% 29.98 in 10.0 mi North 15.0 mph 21.9 mph N/A   Overcast
10:55 AM 39.2 °F 33.0 °F 32.0 °F 75% 29.98 in 10.0 mi North 9.2 mph 16.1 mph N/A   Overcast
11:15 AM 39.2 °F 32.0 °F 33.8 °F 81% 29.97 in 10.0 mi North 11.5 mph 16.1 mph N/A   Overcast
11:35 AM 39.2 °F 31.2 °F 33.8 °F 81% 29.97 in 10.0 mi North 13.8 mph 21.9 mph N/A   Overcast
11:55 AM 39.2 °F 33.0 °F 33.8 °F 81% 29.97 in 10.0 mi North 9.2 mph 21.9 mph N/A   Overcast
12:15 PM 39.2 °F 32.5 °F 33.8 °F 81% 29.96 in 10.0 mi North 10.4 mph 21.9 mph N/A   Overcast
12:35 PM 41.0 °F 34.7 °F 33.8 °F 76% 29.95 in 10.0 mi NNW 10.4 mph 18.4 mph N/A   Overcast
12:55 PM 41.0 °F 33.9 °F 33.8 °F 76% 29.95 in 10.0 mi NNW 12.7 mph 21.9 mph N/A   Overcast
1:15 PM 41.0 °F 32.8 °F 33.8 °F 76% 29.93 in 10.0 mi NNW 16.1 mph 24.2 mph N/A   Overcast
1:35 PM 41.0 °F 33.5 °F 35.6 °F 81% 29.93 in 10.0 mi NNW 13.8 mph 20.7 mph N/A   Overcast
1:55 PM 41.0 °F 32.8 °F 33.8 °F 76% 29.92 in 10.0 mi NNW 16.1 mph 21.9 mph N/A   Overcast
2:15 PM 41.0 °F 32.5 °F 33.8 °F 76% 29.91 in 10.0 mi North 17.3 mph 24.2 mph N/A   Overcast
2:35 PM 41.0 °F 34.7 °F 35.6 °F 81% 29.91 in 10.0 mi North 10.4 mph 20.7 mph N/A   Overcast
2:55 PM 41.0 °F 33.1 °F 35.6 °F 81% 29.90 in 10.0 mi North 15.0 mph 25.3 mph N/A   Overcast
3:15 PM 41.0 °F 32.2 °F 35.6 °F 81% 29.89 in 10.0 mi North 18.4 mph 23.0 mph N/A   Overcast
3:35 PM 41.0 °F 32.8 °F 35.6 °F 81% 29.89 in 10.0 mi North 16.1 mph 24.2 mph N/A   Overcast
3:55 PM 41.0 °F 32.5 °F 35.6 °F 81% 29.88 in 10.0 mi NNW 17.3 mph 25.3 mph N/A   Overcast
4:15 PM 41.0 °F 32.5 °F 33.8 °F 76% 29.88 in 10.0 mi North 17.3 mph 27.6 mph N/A   Overcast
4:35 PM 39.2 °F 30.8 °F 33.8 °F 81% 29.88 in 10.0 mi North 15.0 mph 28.8 mph N/A   Overcast
4:55 PM 39.2 °F 31.2 °F 35.6 °F 87% 29.87 in 10.0 mi North 13.8 mph 23.0 mph N/A Rain Light Rain
5:15 PM 37.4 °F 28.9 °F 35.6 °F 93% 29.87 in 10.0 mi North 13.8 mph 23.0 mph N/A Rain Light Rain
5:35 PM 37.4 °F 29.3 °F 35.6 °F 93% 29.86 in 10.0 mi NNW 12.7 mph 23.0 mph N/A   Drizzle
5:55 PM 37.4 °F 29.3 °F 35.6 °F 93% 29.86 in 10.0 mi North 12.7 mph 21.9 mph N/A   Drizzle
6:15 PM 37.4 °F 29.3 °F 33.8 °F 87% 29.85 in 10.0 mi NNW 12.7 mph 27.6 mph N/A   Overcast
6:35 PM 37.4 °F 29.8 °F 33.8 °F 87% 29.85 in 10.0 mi NNW 11.5 mph 28.8 mph N/A   Overcast
6:55 PM 37.4 °F 30.3 °F 33.8 °F 87% 29.85 in 10.0 mi NNW 10.4 mph 23.0 mph N/A   Overcast
7:15 PM 39.2 °F 30.5 °F 32.0 °F 75% 29.84 in 10.0 mi NNW 16.1 mph 31.1 mph N/A   Overcast
7:35 PM 39.2 °F 30.8 °F 30.2 °F 70% 29.83 in 10.0 mi NNW 15.0 mph 26.5 mph N/A   Overcast
7:55 PM 41.0 °F 32.8 °F 28.4 °F 61% 29.82 in 10.0 mi NNW 16.1 mph 26.5 mph N/A   Overcast
8:15 PM 41.0 °F 31.6 °F 28.4 °F 61% 29.82 in 10.0 mi North 20.7 mph 32.2 mph N/A   Overcast
8:35 PM 41.0 °F 32.5 °F 26.6 °F 57% 29.81 in 10.0 mi North 17.3 mph 28.8 mph N/A   Overcast
11:35 PM 41.0 °F 31.6 °F 30.2 °F 65% 29.74 in 10.0 mi North 20.7 mph 28.8 mph N/A   Overcast
11:55 PM 41.0 °F 34.3 °F 30.2 °F 65% 29.74 in 10.0 mi North 11.5 mph 24.2 mph N/A   Overcast